User: anonymous   Login
Location: Unspecified
(0.0000°N, 0.0000°E)
Time: 05:49:55
(UTC+00:00)
Language:

STARLINK-32392 - Orbit

View from above orbital plane
View from above orbital plane
View from above satellite
View from above satellite

Ground track
Ground track

The orbit is defined by the following mean orbital elements,

1 61214U          26145.48588980 +.00000000 +00000-0 -33155-4 0 00007
2 61214  53.1628 325.2129 0001506 103.4851 256.6320 15.34396987    08
Epoch (UTC): 25 May 2026 11:39:40
Eccentricity: 0.0001506
inclination: 53.1628°
perigee height: 462 km
apogee height: 464 km
right ascension of ascending node: 325.2129°
argument of perigee: 103.4851°
revolutions per day: 15.34396987
mean anomaly at epoch: 256.6320°

The dashed part of the orbit path shows where the satellite is in the earth's shadow,  

DLR